Time,TemperatureF,DewpointF,PressureIn,WindDirection,WindDirectionDegrees,WindSpeedMPH,WindSpeedGustMPH,Humidity,HourlyPrecipIn,Conditions,Clouds,dailyrainin,SoftwareType,DateUTC
2013-01-22 00:01:00,32.6,31.8,30.15,ESE,111,0.0,0.0,97,0.00,,---,0.00,VWS V14.01,2013-01-22 08:01:00,
2013-01-22 00:07:00,32.6,31.8,30.15,NE,53,0.0,4.0,97,0.00,,---,0.00,VWS V14.01,2013-01-22 08:07:00,
2013-01-22 00:12:00,32.6,31.8,30.15,ENE,57,0.0,4.0,97,0.00,,---,0.00,VWS V14.01,2013-01-22 08:12:00,
2013-01-22 00:17:00,32.7,31.9,30.15,NE,55,1.0,1.0,97,0.00,,---,0.00,VWS V14.01,2013-01-22 08:17:00,
2013-01-22 00:22:00,32.7,31.9,30.15,WSW,247,2.0,3.0,97,0.00,,---,0.00,VWS V14.01,2013-01-22 08:22:00,
2013-01-22 00:26:00,32.6,31.8,30.15,SSW,198,0.0,3.0,97,0.00,,---,0.00,VWS V14.01,2013-01-22 08:26:00,
2013-01-22 00:31:00,32.6,31.8,30.15,SSW,199,1.0,1.0,97,0.00,,---,0.00,VWS V14.01,2013-01-22 08:31:00,
2013-01-22 00:36:00,32.6,31.8,30.15,SSW,208,0.0,2.0,97,0.00,,---,0.00,VWS V14.01,2013-01-22 08:36:00,
2013-01-22 00:41:00,32.5,31.7,30.15,SSW,208,1.0,2.0,97,0.00,,---,0.00,VWS V14.01,2013-01-22 08:41:00,
2013-01-22 00:46:00,32.5,31.7,30.15,SSW,208,0.0,0.0,97,0.00,,---,0.00,VWS V14.01,2013-01-22 08:46:00,
2013-01-22 00:51:00,32.5,31.7,30.15,SSW,208,0.0,1.0,97,0.00,,---,0.00,VWS V14.01,2013-01-22 08:51:00,
2013-01-22 00:56:00,32.5,31.7,30.15,WSW,249,2.0,3.0,97,0.00,,---,0.00,VWS V14.01,2013-01-22 08:56:00,
2013-01-22 01:01:00,32.5,31.7,30.14,WSW,249,0.0,0.0,97,0.00,,---,0.00,VWS V14.01,2013-01-22 09:01:00,
2013-01-22 01:06:00,32.5,31.7,30.14,SSE,164,0.0,1.0,97,0.00,,---,0.00,VWS V14.01,2013-01-22 09:06:00,
2013-01-22 01:11:00,32.5,31.7,30.14,SE,138,0.0,1.0,97,0.00,,---,0.00,VWS V14.01,2013-01-22 09:11:00,
2013-01-22 01:16:00,32.5,31.7,30.14,SE,139,0.0,1.0,97,0.00,,---,0.00,VWS V14.01,2013-01-22 09:16:00,
2013-01-22 01:21:00,32.5,31.7,30.15,SW,221,0.0,2.0,97,0.00,,---,0.00,VWS V14.01,2013-01-22 09:21:00,
2013-01-22 01:27:00,32.5,31.7,30.15,WSW,238,3.0,3.0,97,0.00,,---,0.00,VWS V14.01,2013-01-22 09:27:00,
2013-01-22 01:32:00,32.4,31.6,30.15,SW,231,3.0,3.0,97,0.00,,---,0.00,VWS V14.01,2013-01-22 09:32:00,
2013-01-22 01:37:00,32.4,31.6,30.15,WSW,252,1.0,3.0,97,0.00,,---,0.00,VWS V14.01,2013-01-22 09:37:00,
2013-01-22 01:41:00,32.3,31.5,30.14,SW,218,0.0,3.0,97,0.00,,---,0.00,VWS V14.01,2013-01-22 09:41:00,
2013-01-22 01:47:00,32.3,31.5,30.14,SW,221,0.0,1.0,97,0.00,,---,0.00,VWS V14.01,2013-01-22 09:47:00,
2013-01-22 01:51:00,32.3,31.5,30.15,SW,221,0.0,2.0,97,0.00,,---,0.00,VWS V14.01,2013-01-22 09:51:00,
2013-01-22 01:57:00,32.3,31.5,30.14,SW,221,0.0,2.0,97,0.00,,---,0.00,VWS V14.01,2013-01-22 09:57:00,
2013-01-22 02:01:00,32.3,31.5,30.14,SW,221,0.0,0.0,97,0.00,,---,0.00,VWS V14.01,2013-01-22 10:01:00,
2013-01-22 02:07:00,32.4,31.6,30.14,SW,221,0.0,0.0,97,0.00,,---,0.00,VWS V14.01,2013-01-22 10:07:00,
2013-01-22 02:12:00,32.4,31.6,30.14,SW,221,0.0,0.0,97,0.00,,---,0.00,VWS V14.01,2013-01-22 10:12:00,
2013-01-22 02:17:00,32.4,31.6,30.14,SW,221,0.0,0.0,97,0.00,,---,0.00,VWS V14.01,2013-01-22 10:17:00,
2013-01-22 02:21:00,32.4,31.6,30.14,West,262,1.0,2.0,97,0.00,,---,0.00,VWS V14.01,2013-01-22 10:21:00,
2013-01-22 02:26:00,32.4,31.6,30.14,West,262,0.0,2.0,97,0.00,,---,0.00,VWS V14.01,2013-01-22 10:26:00,
2013-01-22 02:31:00,32.3,31.5,30.14,WNW,288,1.0,2.0,97,0.00,,---,0.00,VWS V14.01,2013-01-22 10:31:00,
2013-01-22 02:36:00,32.3,31.5,30.14,WNW,288,1.0,2.0,97,0.00,,---,0.00,VWS V14.01,2013-01-22 10:36:00,
2013-01-22 02:41:00,32.3,31.5,30.14,WNW,288,0.0,2.0,97,0.00,,---,0.00,VWS V14.01,2013-01-22 10:41:00,
2013-01-22 02:46:00,32.3,31.5,30.14,WNW,288,0.0,0.0,97,0.00,,---,0.00,VWS V14.01,2013-01-22 10:46:00,
2013-01-22 02:51:00,32.3,31.5,30.14,WNW,288,0.0,1.0,97,0.00,,---,0.00,VWS V14.01,2013-01-22 10:51:00,
2013-01-22 02:56:00,32.3,31.5,30.14,WNW,288,0.0,1.0,97,0.00,,---,0.00,VWS V14.01,2013-01-22 10:56:00,
2013-01-22 03:01:00,32.3,31.5,30.14,WNW,288,0.0,0.0,97,0.00,,---,0.00,VWS V14.01,2013-01-22 11:01:00,
2013-01-22 03:06:00,32.3,31.5,30.14,WNW,288,0.0,0.0,97,0.00,,---,0.00,VWS V14.01,2013-01-22 11:06:00,
2013-01-22 03:11:00,32.3,31.5,30.14,WNW,288,0.0,1.0,97,0.00,,---,0.00,VWS V14.01,2013-01-22 11:11:00,
2013-01-22 03:16:00,32.3,31.5,30.14,WNW,288,0.0,0.0,97,0.00,,---,0.00,VWS V14.01,2013-01-22 11:16:00,
2013-01-22 03:21:00,32.2,31.5,30.14,WNW,288,0.0,1.0,97,0.00,,---,0.00,VWS V14.01,2013-01-22 11:21:00,
2013-01-22 03:27:00,32.1,31.4,30.13,WNW,288,0.0,1.0,97,0.00,,---,0.00,VWS V14.01,2013-01-22 11:27:00,
2013-01-22 03:32:00,32.1,31.4,30.14,WNW,288,0.0,0.0,97,0.00,,---,0.00,VWS V14.01,2013-01-22 11:32:00,
2013-01-22 03:37:00,32.1,31.4,30.14,WNW,288,0.0,0.0,97,0.00,,---,0.00,VWS V14.01,2013-01-22 11:37:00,
2013-01-22 03:42:00,32.1,31.4,30.14,WNW,288,0.0,0.0,97,0.00,,---,0.00,VWS V14.01,2013-01-22 11:42:00,
2013-01-22 03:47:00,32.1,31.4,30.14,WNW,288,0.0,0.0,97,0.00,,---,0.00,VWS V14.01,2013-01-22 11:47:00,
2013-01-22 03:52:00,32.2,31.5,30.14,WNW,288,0.0,0.0,97,0.00,,---,0.00,VWS V14.01,2013-01-22 11:52:00,
2013-01-22 03:57:00,32.2,31.5,30.14,WNW,288,0.0,0.0,97,0.00,,---,0.00,VWS V14.01,2013-01-22 11:57:00,
2013-01-22 04:02:00,32.2,31.5,30.14,WNW,288,0.0,0.0,97,0.00,,---,0.00,VWS V14.01,2013-01-22 12:02:00,
2013-01-22 04:07:00,32.1,31.4,30.13,WNW,288,0.0,1.0,97,0.00,,---,0.00,VWS V14.01,2013-01-22 12:07:00,
2013-01-22 04:12:00,32.1,31.4,30.13,WNW,288,0.0,1.0,97,0.00,,---,0.00,VWS V14.01,2013-01-22 12:12:00,
2013-01-22 04:17:00,32.1,31.4,30.12,WNW,292,0.0,1.0,97,0.00,,---,0.00,VWS V14.01,2013-01-22 12:17:00,
2013-01-22 04:22:00,32.1,31.4,30.13,ENE,76,1.0,1.0,97,0.00,,---,0.00,VWS V14.01,2013-01-22 12:22:00,
2013-01-22 04:27:00,32.1,31.4,30.12,ENE,59,0.0,2.0,97,0.00,,---,0.00,VWS V14.01,2013-01-22 12:27:00,
2013-01-22 04:32:00,32.0,31.2,30.12,ENE,59,0.0,0.0,97,0.00,,---,0.00,VWS V14.01,2013-01-22 12:32:00,
2013-01-22 04:37:00,31.9,31.1,30.12,South,170,1.0,2.0,97,0.00,,---,0.00,VWS V14.01,2013-01-22 12:37:00,
2013-01-22 04:42:00,31.9,31.1,30.12,South,185,0.0,2.0,97,0.00,,---,0.00,VWS V14.01,2013-01-22 12:42:00,
2013-01-22 04:47:00,31.9,31.1,30.12,South,185,0.0,0.0,97,0.00,,---,0.00,VWS V14.01,2013-01-22 12:47:00,
2013-01-22 04:52:00,31.9,31.1,30.12,South,185,0.0,0.0,97,0.00,,---,0.00,VWS V14.01,2013-01-22 12:52:00,
2013-01-22 04:57:00,31.9,31.1,30.12,East,80,2.0,2.0,97,0.00,,---,0.00,VWS V14.01,2013-01-22 12:57:00,
2013-01-22 05:02:00,31.9,31.1,30.12,East,80,0.0,0.0,97,0.00,,---,0.00,VWS V14.01,2013-01-22 13:02:00,
2013-01-22 05:07:00,31.9,31.1,30.12,East,80,0.0,0.0,97,0.00,,---,0.00,VWS V14.01,2013-01-22 13:07:00,
2013-01-22 05:12:00,31.9,31.1,30.12,East,80,0.0,1.0,97,0.00,,---,0.00,VWS V14.01,2013-01-22 13:12:00,
2013-01-22 05:17:00,31.8,31.0,30.12,East,80,0.0,0.0,97,0.00,,---,0.00,VWS V14.01,2013-01-22 13:17:00,
2013-01-22 05:22:00,31.8,31.0,30.11,East,80,0.0,0.0,97,0.00,,---,0.00,VWS V14.01,2013-01-22 13:22:00,
2013-01-22 05:27:00,31.8,31.0,30.11,SSW,207,2.0,3.0,97,0.00,,---,0.00,VWS V14.01,2013-01-22 13:27:00,
2013-01-22 05:32:00,31.6,30.9,30.11,SE,125,0.0,1.0,97,0.00,,---,0.00,VWS V14.01,2013-01-22 13:32:00,
2013-01-22 05:37:00,31.6,30.9,30.11,ENE,75,0.0,1.0,97,0.00,,---,0.00,VWS V14.01,2013-01-22 13:37:00,
2013-01-22 05:42:00,31.6,30.9,30.11,ENE,75,0.0,1.0,97,0.00,,---,0.00,VWS V14.01,2013-01-22 13:42:00,
2013-01-22 05:47:00,31.7,31.0,30.11,ENE,75,0.0,1.0,97,0.00,,---,0.00,VWS V14.01,2013-01-22 13:47:00,
2013-01-22 05:52:00,31.7,31.0,30.10,ENE,75,0.0,1.0,97,0.00,,---,0.00,VWS V14.01,2013-01-22 13:52:00,
2013-01-22 05:57:00,31.7,31.0,30.11,SW,236,2.0,2.0,97,0.00,,---,0.00,VWS V14.01,2013-01-22 13:57:00,
2013-01-22 06:02:00,31.7,31.0,30.11,SSW,208,0.0,1.0,97,0.00,,---,0.00,VWS V14.01,2013-01-22 14:02:00,
2013-01-22 06:07:00,31.6,30.9,30.10,ESE,105,0.0,2.0,97,0.00,,---,0.00,VWS V14.01,2013-01-22 14:07:00,
2013-01-22 06:12:00,31.6,30.9,30.10,ESE,105,0.0,2.0,97,0.00,,---,0.00,VWS V14.01,2013-01-22 14:12:00,
2013-01-22 06:17:00,31.6,30.9,30.10,SSW,206,2.0,2.0,97,0.00,,---,0.00,VWS V14.01,2013-01-22 14:17:00,
2013-01-22 06:22:00,31.5,30.8,30.10,WSW,247,1.0,2.0,97,0.00,,---,0.00,VWS V14.01,2013-01-22 14:22:00,
2013-01-22 06:27:00,31.4,30.6,30.10,SSW,209,0.0,3.0,97,0.00,,---,0.00,VWS V14.01,2013-01-22 14:27:00,
2013-01-22 06:32:00,31.4,30.6,30.10,SW,224,1.0,1.0,97,0.00,,---,0.00,VWS V14.01,2013-01-22 14:32:00,
2013-01-22 06:37:00,31.3,30.5,30.10,WSW,258,1.0,2.0,97,0.00,,---,0.00,VWS V14.01,2013-01-22 14:37:00,
2013-01-22 06:42:00,31.3,30.5,30.10,SW,234,0.0,2.0,97,0.00,,---,0.00,VWS V14.01,2013-01-22 14:42:00,
2013-01-22 06:47:00,31.2,30.5,30.10,SSW,206,0.0,0.0,97,0.00,,---,0.00,VWS V14.01,2013-01-22 14:47:00,
2013-01-22 06:52:00,31.1,30.4,30.10,SSW,206,0.0,0.0,97,0.00,,---,0.00,VWS V14.01,2013-01-22 14:52:00,
2013-01-22 06:57:00,31.2,30.5,30.09,SSW,206,0.0,0.0,97,0.00,,---,0.00,VWS V14.01,2013-01-22 14:57:00,
2013-01-22 07:02:00,31.2,30.5,30.09,SSW,206,0.0,0.0,97,0.00,,---,0.00,VWS V14.01,2013-01-22 15:02:00,
2013-01-22 07:07:00,31.0,30.2,30.09,SSW,206,0.0,2.0,97,0.00,,---,0.00,VWS V14.01,2013-01-22 15:07:00,
2013-01-22 07:12:00,30.9,30.1,30.09,SSW,206,0.0,2.0,97,0.00,,---,0.00,VWS V14.01,2013-01-22 15:12:00,
2013-01-22 07:17:00,30.8,30.0,30.09,SSW,206,0.0,0.0,97,0.00,,---,0.00,VWS V14.01,2013-01-22 15:17:00,
2013-01-22 07:22:00,30.8,30.0,30.09,ESE,109,0.0,2.0,97,0.00,,---,0.00,VWS V14.01,2013-01-22 15:22:00,
2013-01-22 07:27:00,30.8,30.0,30.09,South,185,0.0,2.0,97,0.00,,---,0.00,VWS V14.01,2013-01-22 15:27:00,
2013-01-22 07:32:00,30.8,30.0,30.09,South,185,0.0,0.0,97,0.00,,---,0.00,VWS V14.01,2013-01-22 15:32:00,
2013-01-22 07:37:00,30.8,30.0,30.09,South,185,0.0,0.0,97,0.00,,---,0.00,VWS V14.01,2013-01-22 15:37:00,
2013-01-22 07:42:00,30.8,30.0,30.09,South,185,0.0,0.0,97,0.00,,---,0.00,VWS V14.01,2013-01-22 15:42:00,
2013-01-22 07:47:00,30.7,30.0,30.09,SE,126,0.0,1.0,97,0.00,,---,0.00,VWS V14.01,2013-01-22 15:47:00,
2013-01-22 07:52:00,30.7,30.0,30.09,SE,126,0.0,1.0,97,0.00,,---,0.00,VWS V14.01,2013-01-22 15:52:00,
2013-01-22 07:57:00,30.6,29.9,30.09,East,98,0.0,1.0,97,0.00,,---,0.00,VWS V14.01,2013-01-22 15:57:00,
2013-01-22 08:02:00,30.6,29.9,30.09,NE,45,0.0,0.0,97,0.00,,---,0.00,VWS V14.01,2013-01-22 16:02:00,
2013-01-22 08:07:00,30.5,29.8,30.09,NE,45,0.0,0.0,97,0.00,,---,0.00,VWS V14.01,2013-01-22 16:07:00,
2013-01-22 08:12:00,30.5,29.8,30.09,NE,45,0.0,0.0,97,0.00,,---,0.00,VWS V14.01,2013-01-22 16:12:00,
2013-01-22 08:17:00,30.5,29.8,30.09,NE,45,0.0,0.0,97,0.00,,---,0.00,VWS V14.01,2013-01-22 16:17:00,
2013-01-22 08:22:00,30.5,29.8,30.08,NE,45,0.0,0.0,97,0.00,,---,0.00,VWS V14.01,2013-01-22 16:22:00,
2013-01-22 08:27:00,30.5,29.8,30.08,NE,54,0.0,2.0,97,0.00,,---,0.00,VWS V14.01,2013-01-22 16:27:00,
2013-01-22 08:32:00,30.4,29.6,30.09,NE,50,2.0,3.0,97,0.00,,---,0.00,VWS V14.01,2013-01-22 16:32:00,
2013-01-22 08:37:00,30.3,29.8,30.09,East,91,0.0,3.0,98,0.00,,---,0.00,VWS V14.01,2013-01-22 16:37:00,
2013-01-22 08:42:00,30.1,29.4,30.09,East,91,0.0,3.0,97,0.00,,---,0.00,VWS V14.01,2013-01-22 16:42:00,
2013-01-22 08:47:00,29.9,29.1,30.09,East,91,0.0,0.0,97,0.00,,---,0.00,VWS V14.01,2013-01-22 16:47:00,
2013-01-22 08:52:00,30.0,29.2,30.09,East,91,0.0,1.0,97,0.00,,---,0.00,VWS V14.01,2013-01-22 16:52:00,
2013-01-22 08:57:00,30.2,29.5,30.09,East,91,1.0,1.0,97,0.00,,---,0.00,VWS V14.01,2013-01-22 16:57:00,
2013-01-22 09:02:00,30.3,29.8,30.09,East,91,0.0,1.0,98,0.00,,---,0.00,VWS V14.01,2013-01-22 17:02:00,
2013-01-22 09:07:00,30.3,29.8,30.09,East,94,0.0,2.0,98,0.00,,---,0.00,VWS V14.01,2013-01-22 17:07:00,
2013-01-22 09:12:00,30.3,29.8,30.09,East,94,0.0,2.0,98,0.00,,---,0.00,VWS V14.01,2013-01-22 17:12:00,
2013-01-22 09:17:00,30.5,30.0,30.09,ENE,66,0.0,2.0,98,0.00,,---,0.00,VWS V14.01,2013-01-22 17:17:00,
2013-01-22 09:22:00,30.6,29.9,30.08,ENE,67,0.0,2.0,97,0.00,,---,0.00,VWS V14.01,2013-01-22 17:22:00,
2013-01-22 09:27:00,30.8,30.0,30.08,ENE,67,0.0,2.0,97,0.00,,---,0.00,VWS V14.01,2013-01-22 17:27:00,
2013-01-22 09:32:00,31.0,30.5,30.09,ENE,66,0.0,1.0,98,0.00,,---,0.00,VWS V14.01,2013-01-22 17:32:00,
2013-01-22 09:37:00,31.2,30.7,30.09,ENE,67,0.0,1.0,98,0.00,,---,0.00,VWS V14.01,2013-01-22 17:37:00,
2013-01-22 09:43:00,31.2,30.7,30.09,SSW,192,1.0,2.0,98,0.00,,---,0.00,VWS V14.01,2013-01-22 17:43:00,
2013-01-22 09:48:00,31.4,30.9,30.09,SSW,213,0.0,0.0,98,0.00,,---,0.00,VWS V14.01,2013-01-22 17:48:00,
2013-01-22 09:53:00,31.5,31.0,30.08,SSW,213,0.0,1.0,98,0.00,,---,0.00,VWS V14.01,2013-01-22 17:53:00,
2013-01-22 09:58:00,31.7,31.2,30.09,NNE,28,0.0,2.0,98,0.00,,---,0.00,VWS V14.01,2013-01-22 17:58:00,
2013-01-22 10:03:00,31.9,31.4,30.09,NNE,28,0.0,0.0,98,0.00,,---,0.00,VWS V14.01,2013-01-22 18:03:00,
2013-01-22 10:08:00,32.0,31.5,30.09,WNW,292,0.0,2.0,98,0.00,,---,0.00,VWS V14.01,2013-01-22 18:08:00,
2013-01-22 10:13:00,32.0,31.5,30.09,SW,229,0.0,2.0,98,0.00,,---,0.00,VWS V14.01,2013-01-22 18:13:00,
2013-01-22 10:18:00,31.9,31.4,30.09,WNW,291,2.0,3.0,98,0.00,,---,0.00,VWS V14.01,2013-01-22 18:18:00,
2013-01-22 10:23:00,31.9,31.4,30.09,WNW,291,1.0,3.0,98,0.00,,---,0.00,VWS V14.01,2013-01-22 18:23:00,
2013-01-22 10:28:00,31.8,31.3,30.09,WNW,291,0.0,3.0,98,0.00,,---,0.00,VWS V14.01,2013-01-22 18:28:00,
2013-01-22 10:33:00,31.9,31.4,30.09,WNW,291,0.0,0.0,98,0.00,,---,0.00,VWS V14.01,2013-01-22 18:33:00,
2013-01-22 10:38:00,31.9,31.4,30.09,WNW,291,0.0,0.0,98,0.00,,---,0.00,VWS V14.01,2013-01-22 18:38:00,
2013-01-22 10:43:00,31.8,31.3,30.09,WNW,291,0.0,0.0,98,0.00,,---,0.00,VWS V14.01,2013-01-22 18:43:00,
2013-01-22 10:48:00,31.9,31.4,30.08,WNW,290,0.0,0.0,98,0.00,,---,0.00,VWS V14.01,2013-01-22 18:48:00,
2013-01-22 10:53:00,32.1,31.6,30.08,West,260,0.0,0.0,98,0.00,,---,0.00,VWS V14.01,2013-01-22 18:53:00,
2013-01-22 10:58:00,32.0,31.5,30.09,West,260,0.0,0.0,98,0.00,,---,0.00,VWS V14.01,2013-01-22 18:58:00,
2013-01-22 11:03:00,32.1,31.6,30.09,WNW,284,0.0,0.0,98,0.00,,---,0.00,VWS V14.01,2013-01-22 19:03:00,
2013-01-22 11:08:00,32.2,31.7,30.09,WSW,237,0.0,0.0,98,0.00,,---,0.00,VWS V14.01,2013-01-22 19:08:00,
2013-01-22 11:13:00,32.1,31.6,30.09,WSW,237,0.0,0.0,98,0.00,,---,0.00,VWS V14.01,2013-01-22 19:13:00,
2013-01-22 11:18:00,32.1,31.6,30.09,WSW,254,0.0,0.0,98,0.00,,---,0.00,VWS V14.01,2013-01-22 19:18:00,
2013-01-22 11:23:00,32.2,31.7,30.08,SW,234,0.0,0.0,98,0.00,,---,0.00,VWS V14.01,2013-01-22 19:23:00,
2013-01-22 11:28:00,32.2,31.7,30.08,SW,236,0.0,0.0,98,0.00,,---,0.00,VWS V14.01,2013-01-22 19:28:00,
2013-01-22 11:33:00,32.1,31.6,30.08,WSW,243,0.0,0.0,98,0.00,,---,0.00,VWS V14.01,2013-01-22 19:33:00,
2013-01-22 11:38:00,32.2,31.7,30.08,West,263,0.0,0.0,98,0.00,,---,0.00,VWS V14.01,2013-01-22 19:38:00,
2013-01-22 11:43:00,32.4,31.9,30.08,West,263,0.0,0.0,98,0.00,,---,0.00,VWS V14.01,2013-01-22 19:43:00,
2013-01-22 11:48:00,32.5,32.0,30.08,SW,222,0.0,0.0,98,0.00,,---,0.00,VWS V14.01,2013-01-22 19:48:00,
2013-01-22 11:53:00,32.5,32.0,30.08,SW,222,0.0,0.0,98,0.00,,---,0.00,VWS V14.01,2013-01-22 19:53:00,
2013-01-22 11:58:00,32.7,32.2,30.07,SW,217,0.0,0.0,98,0.00,,---,0.00,VWS V14.01,2013-01-22 19:58:00,
2013-01-22 12:03:00,32.8,32.3,30.07,WSW,252,0.0,0.0,98,0.00,,---,0.00,VWS V14.01,2013-01-22 20:03:00,
2013-01-22 12:08:00,32.8,32.3,30.07,WSW,243,0.0,0.0,98,0.00,,---,0.00,VWS V14.01,2013-01-22 20:08:00,
2013-01-22 12:13:00,32.9,32.4,30.07,WSW,243,0.0,0.0,98,0.00,,---,0.00,VWS V14.01,2013-01-22 20:13:00,
2013-01-22 12:18:00,33.0,32.5,30.06,WSW,243,0.0,0.0,98,0.00,,---,0.00,VWS V14.01,2013-01-22 20:18:00,
2013-01-22 12:23:00,33.4,32.9,30.06,West,262,0.0,0.0,98,0.00,,---,0.00,VWS V14.01,2013-01-22 20:23:00,
2013-01-22 12:28:00,33.6,33.1,30.06,WNW,288,0.0,0.0,98,0.00,,---,0.00,VWS V14.01,2013-01-22 20:28:00,
2013-01-22 12:33:00,33.9,33.4,30.06,NW,317,0.0,0.0,98,0.00,,---,0.00,VWS V14.01,2013-01-22 20:33:00,
2013-01-22 12:38:00,33.9,33.4,30.06,West,261,0.0,0.0,98,0.00,,---,0.00,VWS V14.01,2013-01-22 20:38:00,
2013-01-22 12:43:00,34.0,33.5,30.05,West,261,0.0,0.0,98,0.00,,---,0.00,VWS V14.01,2013-01-22 20:43:00,
2013-01-22 12:48:00,34.3,33.8,30.05,WSW,237,0.0,0.0,98,0.00,,---,0.00,VWS V14.01,2013-01-22 20:48:00,
2013-01-22 12:53:00,34.5,34.0,30.05,SW,219,0.0,0.0,98,0.00,,---,0.00,VWS V14.01,2013-01-22 20:53:00,
2013-01-22 12:58:00,34.5,34.0,30.05,SW,219,0.0,0.0,98,0.00,,---,0.00,VWS V14.01,2013-01-22 20:58:00,
2013-01-22 13:03:00,34.7,34.2,30.05,WNW,293,0.0,0.0,98,0.00,,---,0.00,VWS V14.01,2013-01-22 21:03:00,
2013-01-22 13:08:00,34.8,34.3,30.05,WNW,288,0.0,0.0,98,0.00,,---,0.00,VWS V14.01,2013-01-22 21:08:00,
2013-01-22 13:13:00,35.0,34.5,30.05,SW,229,0.0,0.0,98,0.00,,---,0.00,VWS V14.01,2013-01-22 21:13:00,
2013-01-22 13:18:00,34.9,34.4,30.04,WSW,250,0.0,0.0,98,0.00,,---,0.00,VWS V14.01,2013-01-22 21:18:00,
2013-01-22 13:23:00,35.1,34.6,30.04,WSW,256,0.0,0.0,98,0.00,,---,0.00,VWS V14.01,2013-01-22 21:23:00,
2013-01-22 13:28:00,35.6,34.8,30.03,NNE,15,0.0,0.0,97,0.00,,---,0.00,VWS V14.01,2013-01-22 21:28:00,
2013-01-22 13:31:00,35.8,35.0,30.03,WSW,242,0.0,0.0,97,0.00,,---,0.00,VWS V14.01,2013-01-22 21:31:00,
2013-01-22 13:36:00,36.0,35.0,30.04,SW,229,2.0,4.0,96,0.00,,---,0.00,VWS V14.01,2013-01-22 21:36:00,
2013-01-22 13:41:00,36.1,34.8,30.03,SSW,209,2.0,4.0,95,0.00,,---,0.00,VWS V14.01,2013-01-22 21:41:00,
2013-01-22 13:46:00,36.4,35.1,30.03,NW,325,0.0,0.0,95,0.00,,---,0.00,VWS V14.01,2013-01-22 21:46:00,
2013-01-22 13:51:00,36.6,35.0,30.03,West,259,4.0,4.0,94,0.00,,---,0.00,VWS V14.01,2013-01-22 21:51:00,
2013-01-22 13:56:00,36.5,34.7,30.03,West,265,3.0,5.0,93,0.00,,---,0.00,VWS V14.01,2013-01-22 21:56:00,
2013-01-22 14:01:00,36.6,34.8,30.02,WNW,300,0.0,0.0,93,0.00,,---,0.00,VWS V14.01,2013-01-22 22:01:00,
2013-01-22 14:06:00,36.6,34.5,30.02,NW,307,1.0,1.0,92,0.00,,---,0.00,VWS V14.01,2013-01-22 22:06:00,
2013-01-22 14:11:00,36.6,34.5,30.02,NW,307,0.0,1.0,92,0.00,,---,0.00,VWS V14.01,2013-01-22 22:11:00,
2013-01-22 14:16:00,36.6,34.5,30.02,West,264,0.0,0.0,92,0.00,,---,0.00,VWS V14.01,2013-01-22 22:16:00,
2013-01-22 14:21:00,36.8,34.7,30.02,WSW,252,0.0,2.0,92,0.00,,---,0.00,VWS V14.01,2013-01-22 22:21:00,
2013-01-22 14:26:00,36.9,34.5,30.01,WSW,254,0.0,2.0,91,0.00,,---,0.00,VWS V14.01,2013-01-22 22:26:00,
2013-01-22 14:31:00,36.9,34.5,30.01,WSW,254,1.0,1.0,91,0.00,,---,0.00,VWS V14.01,2013-01-22 22:31:00,
2013-01-22 14:36:00,37.0,34.6,30.01,WSW,254,0.0,2.0,91,0.00,,---,0.00,VWS V14.01,2013-01-22 22:36:00,
2013-01-22 14:41:00,37.1,34.7,30.01,WSW,254,0.0,2.0,91,0.00,,---,0.00,VWS V14.01,2013-01-22 22:41:00,
2013-01-22 14:46:00,37.1,34.7,30.01,WSW,251,2.0,2.0,91,0.00,,---,0.00,VWS V14.01,2013-01-22 22:46:00,
2013-01-22 14:51:00,37.2,34.8,30.01,South,190,1.0,3.0,91,0.00,,---,0.00,VWS V14.01,2013-01-22 22:51:00,
2013-01-22 14:56:00,37.2,34.8,30.01,South,190,0.0,3.0,91,0.00,,---,0.00,VWS V14.01,2013-01-22 22:56:00,
2013-01-22 15:01:00,37.3,35.2,30.00,SW,230,0.0,0.0,92,0.00,,---,0.00,VWS V14.01,2013-01-22 23:01:00,
2013-01-22 15:06:00,37.5,35.4,30.00,SW,230,0.0,0.0,92,0.00,,---,0.00,VWS V14.01,2013-01-22 23:06:00,
2013-01-22 15:11:00,37.8,35.7,29.99,SW,230,0.0,2.0,92,0.00,,---,0.00,VWS V14.01,2013-01-22 23:11:00,
2013-01-22 15:16:00,37.9,35.5,30.00,SW,221,0.0,0.0,91,0.00,,---,0.00,VWS V14.01,2013-01-22 23:16:00,
2013-01-22 15:21:00,38.0,35.6,30.00,WSW,237,2.0,3.0,91,0.00,,---,0.00,VWS V14.01,2013-01-22 23:21:00,
2013-01-22 15:26:00,38.0,35.6,30.00,SW,226,1.0,3.0,91,0.00,,---,0.00,VWS V14.01,2013-01-22 23:26:00,
2013-01-22 15:31:00,37.9,35.5,30.00,NNW,343,0.0,0.0,91,0.00,,---,0.00,VWS V14.01,2013-01-22 23:31:00,
2013-01-22 15:36:00,38.0,35.6,30.00,West,279,0.0,2.0,91,0.00,,---,0.00,VWS V14.01,2013-01-22 23:36:00,
2013-01-22 15:41:00,38.0,35.6,30.00,SSW,192,0.0,2.0,91,0.00,,---,0.00,VWS V14.01,2013-01-22 23:41:00,
2013-01-22 15:46:00,37.9,35.5,29.99,South,174,0.0,0.0,91,0.00,,---,0.00,VWS V14.01,2013-01-22 23:46:00,
2013-01-22 15:51:00,37.9,35.5,29.99,South,174,0.0,1.0,91,0.00,,---,0.00,VWS V14.01,2013-01-22 23:51:00,
2013-01-22 15:56:00,37.8,35.4,29.99,ENE,69,1.0,3.0,91,0.00,,---,0.00,VWS V14.01,2013-01-22 23:56:00,
2013-01-22 16:01:00,37.6,35.2,29.99,SSE,163,0.0,0.0,91,0.00,,---,0.00,VWS V14.01,2013-01-23 00:01:00,
2013-01-22 16:06:00,37.6,35.5,29.98,ESE,106,0.0,1.0,92,0.00,,---,0.00,VWS V14.01,2013-01-23 00:06:00,
2013-01-22 16:11:00,37.5,35.4,29.98,South,171,0.0,1.0,92,0.00,,---,0.00,VWS V14.01,2013-01-23 00:11:00,
2013-01-22 16:16:00,37.5,35.4,29.98,SW,234,0.0,0.0,92,0.00,,---,0.00,VWS V14.01,2013-01-23 00:16:00,
2013-01-22 16:20:00,37.5,35.4,29.98,SW,234,0.0,1.0,92,0.00,,---,0.00,VWS V14.01,2013-01-23 00:20:00,
2013-01-22 16:25:00,37.4,35.3,29.98,East,79,0.0,2.0,92,0.00,,---,0.00,VWS V14.01,2013-01-23 00:25:00,
2013-01-22 16:30:00,37.4,35.3,29.98,East,79,0.0,1.0,92,0.00,,---,0.00,VWS V14.01,2013-01-23 00:30:00,
2013-01-22 16:35:00,37.3,35.2,29.98,East,79,0.0,1.0,92,0.00,,---,0.00,VWS V14.01,2013-01-23 00:35:00,
2013-01-22 16:40:00,37.1,35.0,29.98,East,79,2.0,2.0,92,0.00,,---,0.00,VWS V14.01,2013-01-23 00:40:00,
2013-01-22 16:45:00,37.0,34.9,29.98,East,79,0.0,2.0,92,0.00,,---,0.00,VWS V14.01,2013-01-23 00:45:00,
2013-01-22 16:50:00,36.9,34.8,29.98,East,79,0.0,2.0,92,0.00,,---,0.00,VWS V14.01,2013-01-23 00:50:00,
2013-01-22 16:55:00,36.7,34.6,29.98,East,79,0.0,2.0,92,0.00,,---,0.00,VWS V14.01,2013-01-23 00:55:00,
2013-01-22 17:00:00,36.5,34.7,29.98,East,79,0.0,0.0,93,0.00,,---,0.00,VWS V14.01,2013-01-23 01:00:00,
2013-01-22 17:05:00,36.4,34.6,29.98,East,79,0.0,0.0,93,0.00,,---,0.00,VWS V14.01,2013-01-23 01:05:00,
2013-01-22 17:10:00,36.3,34.5,29.97,East,79,0.0,0.0,93,0.00,,---,0.00,VWS V14.01,2013-01-23 01:10:00,
2013-01-22 17:15:00,36.2,34.4,29.97,East,79,0.0,1.0,93,0.00,,---,0.00,VWS V14.01,2013-01-23 01:15:00,
2013-01-22 17:20:00,36.0,34.2,29.97,East,79,1.0,2.0,93,0.00,,---,0.00,VWS V14.01,2013-01-23 01:20:00,
2013-01-22 17:25:00,35.9,34.1,29.97,East,79,0.0,2.0,93,0.00,,---,0.00,VWS V14.01,2013-01-23 01:25:00,
2013-01-22 17:30:00,35.7,34.2,29.97,East,79,0.0,3.0,94,0.00,,---,0.00,VWS V14.01,2013-01-23 01:30:00,
2013-01-22 17:35:00,35.6,34.0,29.97,East,79,0.0,1.0,94,0.00,,---,0.00,VWS V14.01,2013-01-23 01:35:00,
2013-01-22 17:40:00,35.6,34.0,29.97,East,79,0.0,1.0,94,0.00,,---,0.00,VWS V14.01,2013-01-23 01:40:00,
2013-01-22 17:45:00,35.5,34.0,29.97,East,79,1.0,1.0,94,0.00,,---,0.00,VWS V14.01,2013-01-23 01:45:00,
2013-01-22 17:50:00,35.4,34.1,29.97,East,79,0.0,2.0,95,0.00,,---,0.00,VWS V14.01,2013-01-23 01:50:00,
2013-01-22 17:55:00,35.3,33.8,29.97,East,79,0.0,2.0,94,0.00,,---,0.00,VWS V14.01,2013-01-23 01:55:00,
2013-01-22 18:00:00,35.3,34.0,29.97,East,79,0.0,2.0,95,0.00,,---,0.00,VWS V14.01,2013-01-23 02:00:00,
2013-01-22 18:05:00,35.3,34.0,29.97,East,79,0.0,0.0,95,0.00,,---,0.00,VWS V14.01,2013-01-23 02:05:00,
2013-01-22 18:10:00,35.3,34.0,29.97,East,79,0.0,0.0,95,0.00,,---,0.00,VWS V14.01,2013-01-23 02:10:00,
2013-01-22 18:15:00,35.3,34.0,29.97,East,79,0.0,0.0,95,0.00,,---,0.00,VWS V14.01,2013-01-23 02:15:00,
2013-01-22 18:20:00,35.2,33.9,29.97,East,79,0.0,1.0,95,0.00,,---,0.00,VWS V14.01,2013-01-23 02:20:00,
2013-01-22 18:25:00,35.2,33.9,29.96,ENE,59,2.0,2.0,95,0.00,,---,0.00,VWS V14.01,2013-01-23 02:25:00,
2013-01-22 18:30:00,35.1,33.8,29.96,ENE,59,0.0,2.0,95,0.00,,---,0.00,VWS V14.01,2013-01-23 02:30:00,
2013-01-22 18:35:00,35.0,33.7,29.96,ENE,59,0.0,0.0,95,0.00,,---,0.00,VWS V14.01,2013-01-23 02:35:00,
2013-01-22 18:40:00,35.0,33.7,29.95,ENE,59,0.0,0.0,95,0.00,,---,0.00,VWS V14.01,2013-01-23 02:40:00,
2013-01-22 18:45:00,35.0,33.7,29.95,NE,54,0.0,3.0,95,0.00,,---,0.00,VWS V14.01,2013-01-23 02:45:00,
2013-01-22 18:50:00,35.0,33.7,29.95,NE,54,0.0,0.0,95,0.00,,---,0.00,VWS V14.01,2013-01-23 02:50:00,
2013-01-22 18:55:00,35.0,33.7,29.95,NE,54,1.0,1.0,95,0.00,,---,0.00,VWS V14.01,2013-01-23 02:55:00,
2013-01-22 19:00:00,35.0,34.0,29.94,NE,54,0.0,2.0,96,0.00,,---,0.00,VWS V14.01,2013-01-23 03:00:00,
2013-01-22 19:05:00,35.1,34.1,29.95,SSW,202,0.0,1.0,96,0.00,,---,0.00,VWS V14.01,2013-01-23 03:05:00,
2013-01-22 19:10:00,35.2,34.2,29.95,SSW,202,0.0,1.0,96,0.00,,---,0.00,VWS V14.01,2013-01-23 03:10:00,
2013-01-22 19:15:00,35.3,34.3,29.95,SSW,202,0.0,1.0,96,0.00,,---,0.00,VWS V14.01,2013-01-23 03:15:00,
2013-01-22 19:20:00,35.3,34.3,29.95,SSW,202,0.0,0.0,96,0.00,,---,0.00,VWS V14.01,2013-01-23 03:20:00,
2013-01-22 19:25:00,35.3,34.3,29.94,SSW,202,0.0,0.0,96,0.00,,---,0.00,VWS V14.01,2013-01-23 03:25:00,
2013-01-22 19:30:00,35.3,34.0,29.94,SSW,202,0.0,0.0,95,0.00,,---,0.00,VWS V14.01,2013-01-23 03:30:00,
2013-01-22 19:35:00,35.2,33.9,29.94,SSW,202,1.0,1.0,95,0.00,,---,0.00,VWS V14.01,2013-01-23 03:35:00,
2013-01-22 19:40:00,35.2,33.9,29.94,SSW,202,0.0,2.0,95,0.00,,---,0.00,VWS V14.01,2013-01-23 03:40:00,
2013-01-22 19:45:00,35.1,33.8,29.94,SSW,202,0.0,2.0,95,0.00,,---,0.00,VWS V14.01,2013-01-23 03:45:00,
2013-01-22 19:50:00,35.1,34.1,29.95,SSW,202,0.0,0.0,96,0.00,,---,0.00,VWS V14.01,2013-01-23 03:50:00,
2013-01-22 19:55:00,35.1,34.1,29.95,SSW,202,0.0,0.0,96,0.00,,---,0.00,VWS V14.01,2013-01-23 03:55:00,
2013-01-22 20:00:00,35.1,34.1,29.95,SSW,202,0.0,0.0,96,0.00,,---,0.00,VWS V14.01,2013-01-23 04:00:00,
2013-01-22 20:05:00,35.1,34.1,29.94,East,88,2.0,2.0,96,0.00,,---,0.00,VWS V14.01,2013-01-23 04:05:00,
2013-01-22 20:10:00,35.0,34.0,29.94,East,88,0.0,2.0,96,0.00,,---,0.00,VWS V14.01,2013-01-23 04:10:00,
2013-01-22 20:15:00,34.9,33.9,29.94,East,88,0.0,2.0,96,0.00,,---,0.00,VWS V14.01,2013-01-23 04:15:00,
2013-01-22 20:20:00,34.8,33.8,29.95,East,88,0.0,0.0,96,0.00,,---,0.00,VWS V14.01,2013-01-23 04:20:00,
2013-01-22 20:25:00,34.8,33.8,29.95,East,88,1.0,1.0,96,0.00,,---,0.00,VWS V14.01,2013-01-23 04:25:00,
2013-01-22 20:30:00,34.7,33.7,29.95,East,88,0.0,1.0,96,0.00,,---,0.00,VWS V14.01,2013-01-23 04:30:00,
2013-01-22 20:35:00,34.7,33.7,29.94,East,88,0.0,0.0,96,0.00,,---,0.00,VWS V14.01,2013-01-23 04:35:00,
2013-01-22 20:40:00,34.5,33.5,29.94,East,88,0.0,0.0,96,0.00,,---,0.00,VWS V14.01,2013-01-23 04:40:00,
2013-01-22 20:45:00,34.4,33.4,29.94,East,88,0.0,0.0,96,0.00,,---,0.00,VWS V14.01,2013-01-23 04:45:00,
2013-01-22 20:50:00,34.5,33.5,29.94,East,88,0.0,1.0,96,0.00,,---,0.00,VWS V14.01,2013-01-23 04:50:00,
2013-01-22 20:55:00,34.6,33.6,29.94,East,88,0.0,1.0,96,0.00,,---,0.00,VWS V14.01,2013-01-23 04:55:00,
2013-01-22 21:00:00,34.6,33.6,29.94,East,88,0.0,1.0,96,0.00,,---,0.00,VWS V14.01,2013-01-23 05:00:00,
2013-01-22 21:03:00,34.6,33.6,29.94,East,88,1.0,1.0,96,0.00,,---,0.00,VWS V14.01,2013-01-23 05:03:00,
2013-01-22 21:08:00,34.6,33.6,29.94,East,88,0.0,1.0,96,0.00,,---,0.00,VWS V14.01,2013-01-23 05:08:00,
2013-01-22 21:13:00,34.6,33.8,29.94,East,88,1.0,1.0,97,0.00,,---,0.00,VWS V14.01,2013-01-23 05:13:00,
2013-01-22 21:18:00,34.8,33.8,29.94,East,88,0.0,0.0,96,0.00,,---,0.00,VWS V14.01,2013-01-23 05:18:00,
2013-01-22 21:23:00,34.8,34.0,29.93,East,88,1.0,2.0,97,0.00,,---,0.00,VWS V14.01,2013-01-23 05:23:00,
2013-01-22 21:28:00,34.8,34.0,29.93,East,88,1.0,2.0,97,0.00,,---,0.00,VWS V14.01,2013-01-23 05:28:00,
2013-01-22 21:33:00,34.9,34.1,29.93,East,88,1.0,2.0,97,0.00,,---,0.00,VWS V14.01,2013-01-23 05:33:00,
2013-01-22 21:38:00,35.0,34.2,29.93,East,88,2.0,2.0,97,0.00,,---,0.00,VWS V14.01,2013-01-23 05:38:00,
2013-01-22 21:43:00,35.1,34.3,29.92,East,88,2.0,2.0,97,0.00,,---,0.00,VWS V14.01,2013-01-23 05:43:00,
2013-01-22 21:48:00,35.1,34.3,29.92,ENE,68,0.0,2.0,97,0.00,,---,0.00,VWS V14.01,2013-01-23 05:48:00,
2013-01-22 21:53:00,35.1,34.3,29.92,ENE,68,0.0,2.0,97,0.00,,---,0.00,VWS V14.01,2013-01-23 05:53:00,
2013-01-22 21:58:00,35.3,34.5,29.93,ENE,68,0.0,2.0,97,0.00,,---,0.00,VWS V14.01,2013-01-23 05:58:00,
2013-01-22 22:03:00,35.2,34.2,29.93,ENE,68,0.0,0.0,96,0.00,,---,0.00,VWS V14.01,2013-01-23 06:03:00,
2013-01-22 22:08:00,35.1,34.1,29.92,ENE,68,2.0,2.0,96,0.00,,---,0.00,VWS V14.01,2013-01-23 06:08:00,
2013-01-22 22:13:00,35.1,34.1,29.93,ENE,68,0.0,2.0,96,0.00,,---,0.00,VWS V14.01,2013-01-23 06:13:00,
2013-01-22 22:18:00,35.2,34.4,29.93,ENE,68,0.0,2.0,97,0.00,,---,0.00,VWS V14.01,2013-01-23 06:18:00,
2013-01-22 22:23:00,35.4,34.6,29.93,ENE,68,0.0,2.0,97,0.00,,---,0.00,VWS V14.01,2013-01-23 06:23:00,
2013-01-22 22:28:00,35.5,34.7,29.92,ENE,68,0.0,2.0,97,0.00,,---,0.00,VWS V14.01,2013-01-23 06:28:00,
2013-01-22 22:33:00,35.6,34.8,29.93,ENE,68,0.0,0.0,97,0.00,,---,0.00,VWS V14.01,2013-01-23 06:33:00,
2013-01-22 22:38:00,35.7,34.9,29.93,ENE,68,0.0,0.0,97,0.00,,---,0.00,VWS V14.01,2013-01-23 06:38:00,
2013-01-22 22:43:00,35.7,34.9,29.93,SW,229,1.0,2.0,97,0.00,,---,0.00,VWS V14.01,2013-01-23 06:43:00,
2013-01-22 22:48:00,35.8,35.0,29.93,SW,232,0.0,0.0,97,0.00,,---,0.00,VWS V14.01,2013-01-23 06:48:00,
2013-01-22 22:53:00,35.8,35.0,29.93,SW,232,0.0,0.0,97,0.00,,---,0.00,VWS V14.01,2013-01-23 06:53:00,
2013-01-22 22:58:00,35.8,35.0,29.93,SW,232,0.0,2.0,97,0.00,,---,0.00,VWS V14.01,2013-01-23 06:58:00,
2013-01-22 23:03:00,35.7,34.7,29.92,West,261,0.0,2.0,96,0.00,,---,0.00,VWS V14.01,2013-01-23 07:03:00,
2013-01-22 23:08:00,35.6,34.6,29.93,West,261,0.0,2.0,96,0.00,,---,0.00,VWS V14.01,2013-01-23 07:08:00,
2013-01-22 23:13:00,35.5,34.5,29.93,SSW,193,2.0,3.0,96,0.00,,---,0.00,VWS V14.01,2013-01-23 07:13:00,
2013-01-22 23:18:00,35.6,34.6,29.94,SW,219,1.0,3.0,96,0.00,,---,0.00,VWS V14.01,2013-01-23 07:18:00,
2013-01-22 23:23:00,35.6,34.6,29.94,SW,219,0.0,3.0,96,0.00,,---,0.00,VWS V14.01,2013-01-23 07:23:00,
2013-01-22 23:28:00,35.7,34.7,29.94,SW,219,0.0,3.0,96,0.00,,---,0.00,VWS V14.01,2013-01-23 07:28:00,
2013-01-22 23:33:00,35.7,34.7,29.94,SW,219,0.0,0.0,96,0.00,,---,0.00,VWS V14.01,2013-01-23 07:33:00,
2013-01-22 23:38:00,35.7,34.7,29.94,SW,219,0.0,0.0,96,0.00,,---,0.00,VWS V14.01,2013-01-23 07:38:00,
2013-01-22 23:43:00,35.7,34.7,29.93,North,355,2.0,2.0,96,0.00,,---,0.00,VWS V14.01,2013-01-23 07:43:00,
2013-01-22 23:48:00,35.7,34.7,29.92,ENE,65,2.0,3.0,96,0.00,,---,0.00,VWS V14.01,2013-01-23 07:48:00,
2013-01-22 23:53:00,35.7,34.7,29.92,NE,56,3.0,4.0,96,0.00,,---,0.00,VWS V14.01,2013-01-23 07:53:00,
2013-01-22 23:58:00,35.7,34.7,29.93,SW,215,1.0,4.0,96,0.00,,---,0.00,VWS V14.01,2013-01-23 07:58:00,